Temp
7 7 7 6 6 6 6 6 6 6 6 6 6 7 6 7 7 7 7 7 7 7 7 8 8 8 8 8 8 8 8 8 9 9 11 12 11 11 11 11 11 11 12 12 12 13 13 13 14 14 14 14 14 13 13 14 15 14 14 14 15 17 18 18 19 18 18 18 17 17 17 17 18 17 17 17 17 18 17 16 17 17 17 17 17 16 16 16
7 7 6 6 6 6 6 6 6 6 6 6 6 6 6 7 7 7 7 7 7 7 7 8 8 8 7 8 8 8 8 8 9 10 11 11 11 11 11 11 11 11 12 12 13 14 14 14 14 14 14 15 14 13 13 14 14 14 14 14 16 17 18 18 18 17 17 17 17 17 17 17 18 18 17 17 18 17 17 17 17 17 17 17 17 17 16 16
6 6 6 6 6 6 6 6 6 6 6 6 6 6 6 7 7 7 7 7 7 7 7 7 7 7 8 7 7 8 8 9 10 11 11 11 10 11 11 11 11 11 12 12 13 13 14 14 14 14 14 14 14 13 13 14 14 15 15 15 16 17 17 17 17 17 17 17 17 17 17 17 17 18 17 17 18 18 17 18 17 17 17 17 17 17 17 16
6 6 6 6 6 6 6 6 6 5 6 6 6 6 6 6 7 7 7 7 7 7 7 7 7 7 8 7 7 8 8 10 12 10 10 10 10 11 11 11 10 11 11 12 12 13 13 14 14 14 13 13 14 14 14 14 14 15 15 15 16 16 17 17 17 17 16 16 17 17 17 17 17 17 17 17 18 18 18 18 18 18 18 17 17 17 17 16
6 6 6 6 6 6 6 6 6 6 6 6 6 6 7 6 7 7 7 7 7 7 7 7 7 7 7 7 8 8 9 13 12 9 9 10 11 11 11 10 10 10 11 12 12 12 12 13 14 13 13 14 14 13 14 14 15 15 14 16 16 15 16 16 16 16 16 16 16 16 16 17 17 17 17 17 18 18 17 17 18 18 18 18 18 17 17 17
6 6 6 6 6 5 5 5 5 6 6 6 6 6 6 6 7 6 6 6 7 7 7 7 7 7 7 7 8 8 11 14 10 8 10 10 11 11 10 10 10 10 11 11 12 12 13 13 13 13 13 14 14 14 14 15 14 14 14 15 15 15 16 15 15 15 15 16 16 16 16 16 17 17 17 17 17 17 16 16 16 17 18 18 18 17 16 16
6 6 6 5 5 5 5 5 5 5 5 6 6 6 6 6 6 6 6 6 6 6 7 7 7 7 7 7 8 9 11 12 8 9 10 10 10 10 10 10 10 10 11 11 12 12 13 12 13 13 13 14 14 14 14 14 14 14 15 15 14 15 15 13 13 13 14 16 15 15 15 16 16 16 16 16 17 17 16 16 16 16 17 17 17 16 15 15
6 6 5 5 5 5 5 5 5 5 5 5 6 6 6 6 6 6 6 6 6 7 7 7 7 7 7 7 9 11 12 11 8 9 9 9 10 10 10 10 10 10 11 12 13 13 13 12 13 13 13 13 14 14 14 13 14 14 15 15 14 14 14 12 12 12 13 15 14 14 15 16 16 15 15 16 17 16 15 16 15 15 15 15 15 14 13 12
6 5 5 5 5 5 5 5 5 5 5 5 6 6 6 6 6 6 6 6 7 7 7 7 7 7 7 8 10 13 11 9 8 9 9 10 10 10 10 10 10 10 11 11 12 13 13 13 13 13 14 14 13 14 13 13 14 14 15 15 14 14 14 13 13 13 13 14 14 15 16 15 14 14 15 16 15 14 14 15 15 15 14 14 13 11 10 9
5 5 5 5 5 5 5 5 5 5 5 5 6 5 6 6 6 6 7 7 7 7 7 7 7 7 8 8 11 13 10 8 9 9 10 10 10 10 10 10 10 10 11 11 11 13 13 13 13 13 13 13 13 13 13 13 14 14 15 15 14 14 14 14 15 14 14 15 15 15 16 15 14 14 16 16 13 13 15 15 14 14 13 12 10 9 8 7
5 5 5 5 4 4 4 5 5 5 5 5 5 6 6 6 6 7 7 7 7 7 7 7 7 7 7 8 12 12 9 8 9 9 9 10 10 10 10 10 10 10 11 11 11 12 13 13 13 12 13 13 12 12 12 13 13 13 14 14 14 14 14 14 14 14 15 15 15 15 16 15 14 15 16 14 12 14 15 14 14 13 12 10 8 8 7 7
5 5 5 4 4 4 4 4 5 5 5 5 5 6 6 5 6 7 7 7 7 7 7 7 7 7 8 10 11 10 8 8 8 9 9 10 10 10 10 10 10 10 11 11 12 11 12 12 12 13 13 13 13 12 12 12 12 13 13 14 14 14 14 14 14 14 15 15 15 15 15 15 15 15 14 11 11 14 15 14 13 13 12 10 8 7 6 6
5 5 4 4 4 4 4 4 5 5 5 5 6 6 6 6 6 7 7 7 7 7 7 7 7 7 9 10 9 8 8 8 8 9 9 9 10 10 10 10 10 10 11 12 12 11 12 12 12 13 12 12 13 12 12 12 12 13 13 13 14 14 14 14 14 14 14 15 15 14 15 16 16 14 12 11 11 13 15 14 13 12 11 10 9 7 6 5
5 4 4 4 4 4 4 4 5 5 5 6 6 7 7 6 7 7 7 7 7 7 7 7 7 8 10 9 8 8 8 8 9 9 9 9 9 9 10 10 10 10 11 11 11 12 11 11 12 12 11 11 12 11 12 12 12 13 13 13 13 14 14 13 12 13 14 14 14 14 15 16 15 12 11 10 10 13 14 12 12 12 10 10 9 8 6 5
4 4 4 4 4 4 4 4 4 4 5 6 6 7 6 7 7 7 7 7 7 7 7 7 7 9 10 9 7 8 8 9 9 8 8 9 9 10 9 9 10 10 10 11 11 11 11 11 12 12 11 10 11 12 12 13 12 13 13 13 13 14 14 13 11 13 14 13 13 14 15 16 14 11 10 9 11 13 13 11 10 10 9 8 8 7 6 5
4 4 4 3 3 4 4 4 4 5 6 6 7 7 6 7 7 7 7 7 7 7 8 8 8 9 10 9 8 8 8 8 8 8 8 8 9 10 9 9 10 10 10 10 10 10 10 11 11 11 11 11 11 12 13 13 13 12 13 14 14 13 14 14 11 11 13 13 13 14 15 15 13 11 9 9 11 12 10 9 8 8 7 7 6 6 5 4
4 4 3 3 3 4 4 4 4 5 6 7 7 7 7 7 7 7 7 7 7 7 8 9 8 9 10 8 8 8 7 7 7 8 8 8 9 9 9 10 9 10 10 10 10 10 11 11 10 10 11 11 12 12 12 13 13 13 12 13 14 13 14 14 12 10 11 12 13 13 14 14 11 10 9 8 10 10 9 8 7 6 6 5 5 4 4 3
4 3 3 3 3 4 4 4 4 5 7 7 7 7 7 7 7 7 7 7 8 8 9 9 9 10 10 8 7 7 6 6 7 7 8 8 8 9 9 10 9 10 11 10 10 10 11 10 10 11 11 11 11 12 12 13 14 14 13 13 13 13 13 14 13 11 10 12 13 13 14 13 11 10 9 7 8 8 7 6 5 5 4 4 4 3 3 2
3 3 3 3 3 4 4 4 4 5 7 7 7 7 7 7 8 8 8 7 8 8 9 8 8 9 9 7 7 6 6 6 7 7 8 8 8 9 9 9 10 10 10 10 10 10 11 10 10 11 11 11 11 12 13 13 13 13 13 14 14 13 13 13 13 10 10 12 13 13 14 13 12 10 9 7 7 7 6 5 4 3 3 3 3 3 2 1
3 3 3 3 3 4 3 3 4 5 7 7 7 7 8 8 9 9 7 6 5 5 6 6 5 6 7 6 6 6 7 7 7 8 7 7 8 9 9 9 10 10 10 10 10 10 10 10 10 11 12 12 12 12 13 12 11 12 13 13 13 13 13 12 11 9 10 12 13 13 14 14 13 9 7 7 6 5 5 4 3 2 2 2 2 2 1 1
3 3 3 3 3 3 3 3 4 5 6 7 7 7 6 6 8 8 6 5 4 1 3 4 3 5 6 5 5 5 6 7 8 8 7 7 8 9 9 9 9 10 9 9 10 9 9 10 11 12 12 12 12 12 12 11 11 11 12 13 12 13 13 12 11 9 9 11 13 13 13 14 11 6 4 5 4 2 2 2 2 2 1 1 1 1 1 0
2 2 2 3 3 3 3 3 4 5 7 7 5 3 2 1 3 3 4 7 5 1 2 4 3 5 5 5 5 4 6 8 8 8 7 7 9 9 9 9 9 10 9 8 9 9 9 10 11 11 10 11 11 11 10 10 11 11 11 12 12 12 12 11 10 9 9 11 13 12 12 12 7 4 3 2 2 0 0 1 1 1 0 -0 -0 -1 -0 -1
2 2 2 3 3 3 3 3 4 5 5 4 2 1 0 -0 0 0 3 7 7 4 4 5 5 6 6 6 5 5 7 7 7 8 6 7 8 8 8 9 9 9 8 9 10 10 10 11 10 9 10 10 10 10 10 10 10 11 11 11 12 12 12 13 11 9 9 10 11 11 12 10 5 3 2 0 1 0 -0 0 -0 -0 -1 -1 -1 -2 -2 -2
2 2 2 2 2 3 3 3 4 4 3 2 0 0 -0 0 1 1 3 7 7 6 6 5 5 6 6 6 5 6 7 6 6 7 6 6 8 7 8 9 8 8 8 9 10 10 11 9 8 8 9 10 10 9 9 10 10 11 11 11 12 11 11 12 11 9 9 9 10 11 12 11 7 4 3 1 1 1 0 0 -0 -1 -1 -2 -2 -2 -3 -3
2 2 2 2 3 3 3 4 3 2 2 2 1 0 0 1 1 0 4 7 8 7 6 5 5 6 6 6 6 6 6 6 6 6 5 6 7 7 8 8 8 9 9 8 8 9 10 8 7 8 9 9 10 10 10 10 11 11 11 11 12 11 11 10 10 11 11 10 11 11 13 12 7 4 3 1 2 1 1 0 -1 -1 -2 -2 -2 -3 -3 -4
2 2 2 2 3 4 4 4 3 2 2 2 1 1 1 1 1 0 4 9 8 7 7 7 7 6 6 6 5 5 6 7 6 5 5 5 5 7 8 8 8 8 8 8 8 9 9 7 7 9 9 9 9 10 10 10 10 11 11 11 11 11 10 10 10 11 12 12 11 11 12 12 8 4 2 1 1 1 1 -1 -2 -2 -3 -3 -3 -4 -4 -4
2 2 2 2 3 4 4 4 2 2 3 1 1 2 1 1 1 1 5 10 8 7 7 7 7 7 6 6 4 5 7 7 6 6 5 5 5 6 8 8 8 8 7 8 9 8 8 7 7 8 9 9 9 10 10 9 10 10 9 9 10 11 10 10 10 10 11 12 10 10 11 12 11 6 2 1 1 0 -0 -1 -2 -3 -3 -4 -4 -4 -4 -5
2 2 2 2 3 4 4 3 2 1 2 1 1 1 1 2 1 2 8 10 7 6 6 6 7 7 6 5 5 6 6 5 6 6 5 5 5 6 8 7 7 7 6 7 9 7 6 7 7 8 9 9 9 9 9 9 10 9 7 7 9 10 10 10 10 10 11 10 10 10 10 11 12 6 0 2 2 0 -0 -1 -3 -3 -4 -4 -4 -5 -5 -5
1 1 2 2 3 3 3 3 2 1 1 2 1 2 1 1 2 5 10 9 6 5 5 6 7 6 5 5 5 5 5 5 5 6 5 5 5 6 7 5 5 7 6 6 9 7 6 6 6 7 8 9 8 7 6 8 10 8 7 8 8 9 9 9 9 10 9 8 9 10 10 11 11 6 2 3 4 2 1 -2 -3 -4 -4 -5 -5 -5 -5 -5
1 1 2 3 3 2 3 3 2 1 2 2 2 1 1 2 5 8 10 8 5 5 5 5 5 4 4 6 6 4 4 4 3 4 5 5 5 4 5 5 5 6 6 6 8 6 5 5 5 6 6 6 7 6 5 6 8 7 8 9 8 8 8 8 9 9 8 7 8 10 10 10 11 8 5 4 3 3 1 -2 -3 -4 -5 -5 -5 -5 -5 -5
1 1 2 3 2 2 3 2 2 2 2 2 1 1 2 5 7 10 9 5 4 4 4 4 3 3 3 4 4 3 3 3 2 3 4 3 3 2 3 4 4 6 8 7 7 7 5 6 6 5 5 5 6 6 6 5 6 7 9 10 9 9 9 8 8 8 7 8 8 7 9 10 10 9 5 2 1 2 0 -2 -3 -4 -5 -5 -5 -5 -6 -6
1 1 2 2 2 2 2 1 2 2 2 2 1 2 5 8 8 8 6 4 4 4 2 2 2 1 1 1 1 0 1 3 2 2 2 1 1 -0 1 1 0 4 8 6 7 7 6 5 5 5 4 4 5 7 7 6 7 8 9 9 9 9 8 7 8 7 8 9 5 4 7 9 8 5 1 -0 -1 -1 -1 -2 -3 -4 -5 -5 -6 -6 -6 -6
1 1 2 2 2 1 1 1 2 3 2 1 2 4 7 10 8 4 2 3 3 1 0 1 1 -0 0 2 1 -1 0 1 1 2 1 1 1 -0 0 -1 -2 1 5 5 5 7 7 5 3 4 5 4 4 7 7 7 8 8 9 9 9 9 7 7 8 7 7 8 5 4 7 8 8 2 -1 -1 -3 -3 -3 -4 -4 -5 -5 -5 -6 -6 -6 -6
1 2 2 1 1 1 2 2 3 3 2 2 4 7 8 9 5 1 1 1 -1 -1 -0 -0 0 0 1 1 -0 -1 1 1 0 1 2 1 1 -0 -0 -0 -2 -1 1 3 4 4 6 6 3 3 4 4 4 4 4 5 6 8 8 8 9 9 8 8 8 8 8 7 5 6 7 8 8 2 -3 -3 -3 -4 -4 -5 -5 -5 -5 -5 -6 -6 -6 -7
2 2 2 1 1 1 2 3 3 2 2 3 6 8 8 6 1 -1 0 -1 -2 -1 -0 -1 0 2 1 0 -1 -2 1 2 0 0 0 -0 -0 -1 -2 -2 -2 -2 -1 2 3 2 4 5 2 1 3 3 3 3 3 4 6 7 7 7 7 7 7 7 6 6 7 6 6 7 6 3 1 -2 -4 -3 -4 -4 -4 -5 -5 -5 -5 -5 -5 -6 -6 -7
2 2 2 1 1 2 3 3 3 2 3 5 8 7 4 1 -1 -1 -1 -1 -2 -1 -0 1 1 2 2 1 -0 -1 -0 1 0 0 -1 -2 -2 -3 -3 -3 -2 -3 -2 1 1 1 3 4 1 1 3 2 2 2 3 4 5 7 6 7 6 4 5 6 5 3 4 6 7 8 6 1 -1 -2 -3 -3 -4 -4 -4 -4 -5 -5 -5 -5 -6 -6 -7 -7
2 2 2 1 1 2 3 3 3 2 3 6 7 3 -2 -3 -2 -1 -2 -2 -1 -2 0 2 1 0 1 0 -0 -1 -1 0 1 1 0 -2 -3 -4 -4 -3 -3 -3 -3 -2 -0 -0 1 3 1 0 2 3 1 1 3 3 4 5 5 5 5 4 4 6 6 5 4 6 7 8 7 5 4 3 -3 -4 -3 -4 -4 -4 -5 -5 -5 -6 -6 -7 -7 -8
1 2 2 1 1 2 3 3 2 3 4 3 2 -1 -4 -4 -2 -2 -3 -2 -2 -2 0 2 -0 -1 -1 -1 -1 -3 -3 0 1 -0 -0 -1 -2 -4 -5 -4 -3 -3 -3 -3 -1 -1 -0 2 1 -1 0 2 1 2 4 3 3 3 3 3 4 4 5 6 6 5 5 6 7 7 8 7 6 2 -4 -4 -2 -4 -4 -4 -5 -5 -5 -6 -6 -7 -7 -8
1 3 3 1 1 2 2 3 2 3 5 2 -0 -2 -4 -3 -2 -2 -3 -3 -2 -1 0 0 -1 -1 -2 -2 -2 -4 -5 -2 -1 -2 -1 -1 -3 -4 -4 -5 -4 -3 -3 -3 -1 -1 -1 1 2 0 -0 1 2 2 2 1 2 3 3 3 3 3 4 5 5 5 5 7 7 7 8 5 1 -2 -3 -2 -2 -4 -4 -4 -5 -5 -6 -6 -7 -7 -8 -8
1 4 4 1 1 2 2 3 2 1 2 -0 -2 -3 -4 -3 -2 -3 -3 -3 -2 -2 -1 -1 -1 -1 -3 -4 -3 -4 -5 -5 -5 -4 -3 -3 -4 -4 -5 -5 -5 -4 -2 -2 -2 -2 -1 -0 1 0 0 1 1 -0 -1 -1 -0 1 1 1 0 1 3 3 3 3 3 5 6 6 7 3 -4 -4 -2 -1 -2 -3 -4 -4 -5 -6 -6 -7 -7 -8 -8 -8
1 4 4 1 2 2 3 2 -2 -5 -3 -3 -4 -4 -4 -2 -2 -3 -3 -3 -3 -2 -2 -3 -3 -3 -3 -3 -4 -4 -5 -6 -6 -5 -5 -5 -4 -4 -6 -7 -7 -5 -3 -1 -2 -2 -2 -2 -2 -1 -1 1 -1 -3 -3 -3 -2 -1 -0 -1 -1 -0 1 2 3 3 1 3 4 4 5 1 -6 -4 -2 -3 -3 -4 -4 -4 -5 -6 -7 -7 -8 -8 -9 -9
3 5 3 1 2 3 2 -1 -6 -7 -4 -4 -5 -4 -3 -2 -3 -4 -3 -3 -3 -2 -3 -4 -4 -5 -5 -3 -4 -5 -5 -5 -6 -6 -5 -5 -5 -5 -6 -8 -8 -6 -4 -2 -3 -3 -3 -4 -3 -2 -2 -2 -2 -4 -4 -4 -3 -2 -2 -2 -2 -1 -1 -0 1 1 -1 1 1 1 3 -2 -7 -5 -3 -4 -4 -4 -5 -5 -6 -6 -7 -8 -8 -8 -9 -9
3 4 2 0 1 2 2 -1 -5 -6 -5 -6 -6 -5 -5 -4 -4 -4 -4 -5 -4 -3 -4 -5 -5 -5 -6 -6 -5 -5 -6 -6 -6 -5 -5 -6 -6 -6 -7 -8 -7 -5 -4 -3 -3 -3 -3 -4 -4 -3 -3 -3 -3 -3 -4 -5 -4 -2 -3 -3 -3 -3 -3 -3 -2 -2 -3 -1 0 1 2 -3 -8 -6 -4 -5 -5 -5 -5 -5 -7 -7 -7 -8 -8 -9 -9 -10
0 0 1 0 1 3 4 1 -3 -5 -6 -6 -6 -5 -5 -6 -6 -5 -5 -6 -5 -5 -5 -5 -6 -5 -6 -8 -7 -6 -7 -6 -6 -6 -5 -6 -6 -6 -8 -8 -6 -5 -4 -4 -4 -4 -3 -4 -4 -3 -3 -3 -3 -3 -3 -4 -4 -4 -4 -5 -5 -5 -4 -4 -3 -3 -4 -3 -1 0 1 -3 -6 -5 -5 -6 -5 -6 -6 -6 -6 -7 -7 -8 -8 -9 -9 -10
-0 0 1 -1 -2 -0 -0 -3 -4 -4 -5 -5 -5 -6 -6 -5 -6 -6 -6 -6 -7 -6 -5 -6 -7 -6 -7 -8 -7 -8 -8 -6 -6 -7 -6 -6 -6 -6 -7 -8 -7 -5 -4 -4 -5 -4 -4 -5 -5 -4 -4 -3 -3 -3 -4 -4 -4 -5 -5 -5 -5 -5 -5 -4 -3 -3 -4 -3 -3 -3 -2 -4 -7 -6 -5 -6 -6 -6 -6 -6 -7 -7 -7 -8 -8 -9 -10 -11
3 3 2 0 -3 -4 -6 -8 -6 -4 -5 -5 -4 -7 -7 -5 -6 -6 -6 -6 -6 -7 -6 -6 -7 -6 -6 -7 -6 -7 -8 -7 -7 -7 -7 -6 -6 -7 -8 -8 -7 -6 -4 -4 -5 -6 -6 -7 -6 -5 -4 -4 -4 -5 -5 -5 -5 -5 -5 -5 -5 -5 -5 -5 -4 -4 -4 -4 -5 -4 -3 -4 -7 -7 -6 -6 -6 -6 -6 -7 -8 -8 -8 -9 -9 -10 -11 -11
2 2 -1 0 -1 -3 -4 -7 -6 -4 -5 -5 -4 -7 -7 -5 -7 -6 -5 -6 -6 -7 -7 -8 -8 -6 -6 -6 -6 -7 -9 -9 -7 -7 -9 -9 -7 -8 -9 -9 -8 -6 -5 -5 -6 -6 -6 -6 -8 -7 -6 -7 -7 -7 -7 -7 -7 -6 -6 -5 -5 -5 -5 -6 -6 -5 -5 -6 -5 -5 -5 -5 -5 -6 -6 -6 -5 -6 -6 -7 -7 -8 -9 -10 -10 -11 -12 -12
-1 -2 -7 -5 -2 -3 -3 -5 -7 -6 -6 -6 -7 -8 -7 -6 -7 -6 -5 -7 -7 -7 -7 -7 -9 -9 -8 -7 -7 -7 -8 -8 -7 -9 -10 -10 -9 -8 -8 -8 -8 -6 -6 -6 -7 -7 -6 -7 -9 -9 -8 -8 -9 -9 -9 -9 -8 -7 -7 -6 -6 -5 -5 -6 -7 -6 -6 -7 -6 -5 -6 -6 -4 -5 -5 -5 -4 -5 -6 -6 -7 -9 -10 -10 -11 -12 -12 -13
-4 -5 -8 -8 -6 -7 -7 -7 -7 -7 -7 -7 -7 -8 -7 -7 -8 -8 -8 -7 -6 -8 -8 -6 -8 -10 -11 -10 -7 -7 -7 -7 -7 -9 -10 -9 -10 -8 -7 -8 -7 -7 -7 -7 -7 -8 -7 -6 -9 -10 -8 -8 -9 -10 -11 -10 -9 -9 -9 -7 -7 -6 -6 -6 -6 -6 -6 -7 -6 -6 -6 -6 -4 -4 -4 -5 -5 -5 -6 -7 -8 -9 -10 -11 -12 -12 -13 -14
-4 -3 -6 -7 -7 -9 -10 -9 -7 -6 -6 -7 -7 -8 -9 -8 -8 -9 -10 -8 -6 -7 -8 -7 -9 -12 -13 -10 -7 -7 -9 -8 -7 -9 -9 -9 -9 -9 -8 -8 -8 -8 -8 -7 -8 -9 -7 -7 -9 -10 -9 -8 -9 -10 -10 -10 -10 -10 -9 -8 -8 -7 -7 -7 -7 -7 -7 -7 -6 -6 -6 -6 -5 -4 -6 -7 -7 -7 -8 -9 -9 -10 -10 -11 -12 -13 -13 -14
-6 -5 -5 -4 -6 -8 -9 -9 -9 -5 -5 -7 -7 -8 -9 -9 -9 -10 -11 -11 -10 -8 -7 -8 -10 -12 -12 -10 -8 -9 -10 -9 -8 -8 -9 -9 -9 -9 -8 -9 -9 -8 -8 -9 -9 -8 -8 -8 -9 -9 -8 -9 -10 -11 -10 -10 -10 -10 -9 -9 -8 -8 -8 -8 -7 -7 -7 -7 -6 -6 -6 -6 -5 -6 -7 -8 -8 -8 -9 -9 -9 -10 -11 -12 -12 -13 -14 -15
-6 -6 -5 -3 -5 -9 -9 -9 -9 -6 -4 -7 -8 -9 -8 -9 -10 -10 -8 -10 -12 -11 -11 -10 -9 -10 -10 -9 -9 -9 -9 -9 -9 -9 -9 -9 -10 -10 -9 -10 -10 -9 -9 -10 -11 -11 -10 -9 -9 -9 -9 -9 -11 -12 -11 -10 -9 -8 -8 -8 -7 -7 -8 -7 -7 -6 -6 -6 -7 -6 -6 -6 -6 -8 -8 -9 -9 -9 -9 -9 -10 -10 -11 -12 -13 -13 -14 -15
Height
813 811 810 809 808 806 805 804 803 802 800 799 797 796 794 793 792 792 791 789 788 787 786 785 785 784 784 783 783 782 782 782 782 782 782 781 781 782 782 783 784 785 785 786 787 787 788 788 788 788 788 788 789 790 792 791 790 794 796 797 794 785 781 779 777 778 780 780 781 783 781 783 783 782 781 781 782 782 783 783 782 782 782 782 782 782 782 783
812 811 809 808 807 806 805 803 802 800 799 798 796 795 793 792 792 790 790 788 787 786 785 785 784 783 783 782 782 781 781 781 781 781 781 780 780 782 782 783 784 784 785 786 787 787 787 787 788 788 787 786 787 789 791 790 790 792 793 794 789 781 778 776 776 779 781 781 783 783 782 783 782 781 781 782 782 782 784 783 783 783 782 783 782 782 783 783
811 810 808 807 806 805 803 802 801 799 798 797 795 794 792 791 790 789 788 787 786 785 784 784 783 782 781 781 781 780 780 781 781 780 780 780 780 782 783 784 784 784 785 786 786 787 787 787 788 787 787 787 786 788 790 789 790 789 789 791 785 779 778 777 777 779 781 781 783 783 782 783 780 779 781 783 781 782 783 781 782 784 782 782 782 782 783 783
810 809 807 806 805 804 802 801 799 798 797 795 794 792 791 790 788 787 787 785 785 784 783 782 781 781 780 780 779 779 781 779 778 779 779 780 781 782 783 783 784 784 784 785 786 787 787 788 788 787 789 789 786 787 788 787 787 786 787 785 781 780 780 778 778 778 780 781 782 782 783 782 779 779 780 782 782 781 781 779 779 780 779 780 781 781 783 784
809 808 806 805 804 803 801 800 798 797 795 794 792 791 789 788 786 786 784 784 783 782 782 781 780 780 780 779 778 779 779 774 775 780 779 780 781 782 783 783 783 784 784 785 786 787 788 788 788 789 790 788 786 788 786 783 783 785 785 781 780 782 781 780 780 779 780 782 782 782 783 782 779 780 779 780 781 779 778 778 777 777 777 778 780 781 782 784
808 807 806 804 803 802 800 799 797 796 794 792 791 789 787 786 785 783 782 781 780 780 779 779 779 779 779 779 778 779 776 771 776 781 779 780 781 782 783 782 783 783 784 785 785 786 787 787 788 789 788 786 785 786 783 781 782 784 783 781 782 782 781 783 783 783 783 782 782 782 782 782 781 781 779 780 780 778 779 779 778 777 776 777 779 781 783 784
808 806 805 803 802 801 799 798 796 795 793 791 789 787 785 784 782 781 779 778 777 777 777 777 778 778 778 778 778 778 776 775 779 780 779 780 781 782 782 782 783 783 783 784 784 785 785 787 787 786 787 786 784 783 783 783 784 785 783 781 783 783 783 787 787 787 785 782 782 783 782 782 782 783 782 781 779 778 779 779 779 779 777 778 779 782 784 786
807 806 804 802 801 799 798 796 795 794 791 789 788 785 783 782 780 778 776 775 775 774 774 775 776 777 778 778 777 776 775 777 779 779 779 780 780 782 782 782 783 783 784 783 783 784 784 785 785 785 786 786 784 783 783 785 784 784 782 780 783 783 785 788 789 789 787 784 784 784 783 782 783 785 785 781 779 780 781 780 780 779 780 780 782 784 786 788
806 805 803 801 800 798 797 795 794 792 790 789 786 784 782 779 777 776 774 774 773 773 773 773 775 776 777 778 776 772 775 778 779 779 779 780 780 781 782 783 783 783 783 783 783 783 783 784 783 784 784 784 786 784 784 787 784 781 779 780 783 783 785 787 786 787 787 785 785 783 782 783 785 786 784 781 781 783 782 781 781 781 783 784 786 788 790 792
805 804 802 800 799 797 795 794 792 791 789 787 785 783 780 778 776 774 773 772 772 772 772 772 774 775 776 778 774 770 776 779 779 780 779 780 780 781 782 782 783 783 783 783 784 783 783 783 783 785 785 784 787 786 787 787 783 781 780 779 782 782 784 784 782 784 785 783 783 784 781 782 786 786 782 782 784 783 782 783 783 784 787 789 790 792 793 794
804 803 801 799 798 795 794 792 790 789 787 786 784 781 778 777 775 774 773 772 771 771 772 773 774 775 777 777 772 772 779 780 779 780 780 780 780 780 781 782 782 783 783 783 783 783 783 783 784 786 786 785 787 788 788 786 784 784 783 781 782 782 783 783 782 782 783 783 784 784 783 784 788 785 782 785 788 784 782 785 786 787 790 792 794 796 796 797
803 802 800 798 796 794 792 791 789 787 785 784 782 779 777 776 775 774 773 772 772 772 772 773 774 775 777 776 775 777 781 780 780 780 780 780 780 780 780 781 782 782 783 783 783 784 784 784 784 785 786 785 786 787 787 786 787 786 786 784 782 783 782 781 782 782 783 784 783 785 785 784 784 784 785 790 789 784 783 786 787 789 791 795 797 799 800 801
803 801 799 797 795 793 791 790 788 786 784 782 780 778 776 775 775 775 773 773 773 773 774 774 775 776 775 776 779 781 781 781 781 781 780 780 780 780 781 781 781 782 783 783 783 784 784 784 784 785 786 785 785 788 787 788 789 787 787 787 784 783 781 778 780 781 783 783 782 787 785 777 778 784 788 791 790 785 783 786 789 790 793 796 799 801 803 805
802 800 799 796 794 792 790 789 787 785 782 780 778 777 775 775 775 775 775 774 774 774 774 774 775 776 775 778 782 782 781 782 781 781 781 781 781 781 781 781 781 782 782 783 783 784 784 785 785 786 788 787 787 788 788 788 789 786 787 788 785 782 778 779 784 781 782 783 782 787 785 776 780 788 790 792 790 785 784 789 791 792 796 798 800 803 805 807
802 800 798 795 793 791 789 787 786 783 781 779 777 776 775 775 775 776 775 775 775 774 775 775 776 776 776 780 782 782 782 782 782 782 782 781 782 781 781 781 781 781 782 783 783 783 784 785 786 786 788 790 789 787 786 786 786 786 786 783 782 781 776 778 786 782 780 783 783 786 784 777 784 792 793 794 790 785 788 794 796 797 800 801 803 806 807 810
801 799 797 794 792 790 788 786 784 781 779 778 776 775 775 775 775 775 775 775 775 775 775 776 777 776 775 779 782 782 782 783 783 783 782 782 782 781 782 782 782 782 782 783 783 784 785 785 787 788 788 789 788 786 784 783 783 785 783 776 777 781 775 775 786 787 783 784 784 784 779 778 788 796 796 795 790 788 793 799 802 803 804 806 807 809 811 812
800 798 796 794 791 789 787 785 782 780 778 776 775 775 775 775 776 775 775 775 774 776 776 776 778 777 777 781 783 783 785 784 784 783 783 783 782 782 783 782 782 782 782 783 784 784 785 786 790 788 787 787 785 785 786 781 776 780 782 777 776 780 777 774 781 789 789 785 784 783 780 784 793 798 799 799 795 793 799 804 807 808 809 811 812 813 815 815
799 797 795 793 791 789 787 784 781 778 776 775 774 775 775 775 776 775 776 776 775 776 775 777 777 774 777 784 785 785 787 785 784 784 783 783 782 783 783 782 783 782 783 784 784 785 785 787 789 785 785 788 786 785 782 774 770 773 777 776 775 779 781 777 777 787 791 785 784 783 783 788 794 798 802 804 802 801 806 810 812 814 815 816 816 817 818 819
799 797 794 793 791 789 786 783 780 778 776 774 775 776 776 776 776 776 776 776 777 777 776 781 781 776 779 786 787 787 787 786 786 785 784 784 783 783 783 783 783 782 783 783 784 785 784 786 789 785 783 784 783 780 774 772 772 772 772 773 773 774 777 778 780 790 791 785 784 783 781 784 790 797 804 807 808 808 812 816 817 819 820 820 821 821 822 823
798 796 794 792 790 789 786 783 780 778 776 774 775 775 775 776 774 775 780 781 784 787 785 787 788 786 786 788 788 787 786 786 786 785 785 784 783 784 784 784 784 784 784 782 783 786 785 784 783 779 776 777 779 777 774 778 779 777 775 775 774 773 773 778 785 793 793 785 780 781 780 779 786 800 809 810 812 815 817 820 823 824 825 825 825 826 826 827
798 796 794 792 790 788 786 784 781 779 776 775 775 776 779 780 775 776 784 787 790 792 790 791 791 789 789 789 789 788 787 786 786 786 785 785 784 784 784 785 785 784 785 785 785 788 788 783 776 774 775 776 778 778 779 783 783 781 779 775 775 773 774 780 786 793 797 787 778 783 782 779 791 810 819 817 819 825 826 826 828 829 830 830 830 830 830 830
797 795 794 791 789 787 785 784 782 780 777 774 775 780 785 786 783 784 786 785 790 792 791 791 791 789 790 790 789 789 787 786 787 787 786 786 784 784 785 786 784 782 787 789 786 786 787 779 773 777 780 780 781 782 784 786 785 783 780 777 775 773 775 781 788 793 794 786 781 785 782 785 807 821 826 828 830 835 835 833 835 833 834 835 835 835 834 834
796 795 793 790 788 787 785 784 784 782 778 776 780 784 787 788 787 787 785 782 787 792 791 790 790 790 790 789 790 789 788 789 789 788 788 787 785 786 786 785 785 785 788 786 781 782 780 776 778 781 782 782 784 785 787 786 786 783 780 779 774 775 776 773 783 795 794 790 785 784 781 791 816 825 829 836 835 838 839 837 839 838 839 840 840 841 839 839
796 794 791 789 787 786 785 785 784 783 781 781 783 786 787 788 786 787 786 783 786 790 791 791 791 791 791 791 791 789 788 791 791 790 790 788 786 788 786 786 788 787 787 785 782 780 776 780 788 787 783 782 783 786 787 785 783 779 779 778 771 776 780 775 783 792 794 796 791 786 778 781 805 820 826 836 835 837 839 838 841 842 842 844 843 844 844 843
795 792 790 788 786 785 784 785 785 784 784 784 785 787 787 787 787 788 785 781 784 789 790 791 791 792 792 791 791 791 790 792 793 792 792 790 789 788 787 788 787 785 784 787 788 783 779 785 789 787 786 784 782 784 784 782 779 775 774 774 772 775 781 784 787 785 785 786 784 784 774 770 800 821 825 833 834 834 839 840 843 846 846 847 846 847 847 847
793 791 789 787 785 785 784 785 786 785 785 785 787 788 787 787 788 789 784 777 782 789 789 790 791 792 793 792 793 792 789 791 794 793 792 792 791 789 787 787 787 787 787 788 789 784 783 790 790 786 786 785 784 782 781 783 781 774 772 773 774 776 781 785 785 783 778 773 778 784 772 766 791 818 827 834 836 834 839 844 847 849 850 850 850 850 851 850
793 791 789 787 786 784 784 787 786 786 786 787 787 786 787 787 787 790 781 772 782 792 791 791 791 793 794 794 795 791 789 792 793 794 794 793 792 790 787 786 786 788 791 790 785 785 787 790 791 788 786 785 783 779 779 784 781 776 780 781 777 777 782 783 782 783 776 774 784 786 778 766 769 802 829 832 835 839 840 846 850 852 854 854 854 854 854 854
792 791 789 788 786 785 786 787 786 788 788 787 787 786 786 787 788 788 774 770 787 796 795 795 793 794 795 795 796 793 794 796 793 794 796 794 793 791 788 790 790 789 795 790 781 787 792 790 790 788 786 782 780 782 783 782 779 779 788 789 782 779 781 781 782 783 780 784 785 778 785 777 763 802 837 828 828 838 839 846 852 854 857 856 857 857 856 856
792 790 789 788 787 787 787 786 787 789 787 787 786 784 786 787 787 782 768 774 796 801 800 798 793 797 799 797 797 799 799 798 797 797 796 796 795 793 792 797 796 791 796 792 783 789 795 795 795 789 786 784 784 792 794 787 780 784 791 788 785 786 785 786 786 783 788 796 787 773 781 776 764 796 826 819 818 825 833 847 853 856 859 858 859 859 858 858
792 791 789 788 788 787 787 787 788 787 787 787 785 785 787 786 782 773 767 783 801 804 802 800 801 806 804 797 797 804 805 803 805 801 797 799 798 798 799 799 798 794 794 793 789 794 798 799 800 797 795 794 794 797 798 794 788 788 788 783 787 790 788 793 789 786 798 799 784 772 776 777 769 780 802 813 814 814 829 847 853 856 859 859 861 861 860 860
792 790 789 789 788 787 787 787 787 787 787 785 786 787 785 783 777 768 775 798 806 804 806 809 812 814 811 807 806 812 811 808 811 806 804 807 806 808 806 803 804 795 787 790 788 792 798 796 798 803 804 800 797 794 795 798 792 789 785 780 785 785 786 793 790 796 803 790 785 786 782 779 771 774 800 822 824 821 830 843 850 857 859 860 863 862 862 863
791 790 789 789 787 787 787 787 787 786 785 785 786 786 781 775 774 779 795 806 806 811 818 818 819 820 821 820 821 825 821 814 815 815 818 820 820 827 826 827 830 805 786 795 794 789 795 801 803 804 804 805 800 790 789 793 790 787 784 780 781 781 790 795 789 797 792 777 797 807 791 782 780 796 821 831 835 836 837 845 851 856 860 862 863 863 864 864
790 789 789 788 788 788 787 786 785 784 785 786 785 784 777 766 777 805 817 812 813 824 829 825 825 828 825 820 825 833 827 822 822 819 823 825 825 834 834 839 847 825 804 806 802 792 792 802 810 805 802 807 805 794 789 792 789 785 783 780 776 779 794 794 786 796 789 779 801 807 793 782 781 812 838 836 844 849 846 853 855 857 862 862 864 865 865 866
788 788 789 789 788 787 786 785 785 784 785 785 782 779 772 770 798 826 827 826 834 834 832 831 829 827 826 826 833 837 826 825 829 824 823 825 827 836 838 839 845 840 830 817 810 810 797 795 811 815 809 810 810 808 807 805 797 788 787 786 778 775 783 782 775 779 778 783 799 798 790 779 776 816 847 843 849 853 851 857 857 859 863 862 865 866 865 867
787 788 789 789 788 787 786 784 784 783 783 784 780 774 771 788 822 835 828 836 842 833 832 835 828 823 826 832 838 839 829 825 831 831 832 835 839 847 850 848 847 848 841 822 818 827 812 804 821 824 818 817 816 815 816 811 798 790 792 793 789 787 785 785 788 790 786 789 797 790 792 805 817 841 853 847 851 854 854 859 858 860 864 862 865 866 867 869
787 788 788 789 787 785 784 783 783 783 783 780 774 781 800 819 834 836 834 838 838 835 832 827 825 824 824 830 836 839 834 829 830 832 840 850 853 858 859 856 854 854 849 835 830 832 817 813 827 824 817 821 822 818 816 812 801 794 794 793 798 805 800 794 800 812 807 791 782 774 785 819 835 837 846 850 852 855 856 858 859 861 863 864 866 867 869 870
787 788 789 788 786 785 784 783 782 782 783 780 780 804 836 844 839 837 839 837 836 840 830 818 827 833 831 834 837 840 837 831 830 829 837 850 855 863 867 861 857 858 858 849 843 844 832 820 827 831 822 818 823 822 817 815 811 804 801 799 803 807 803 795 792 802 806 789 775 767 772 792 797 807 843 855 848 854 857 857 861 862 863 866 867 870 871 871
788 788 788 788 787 785 784 782 783 783 783 792 808 831 847 846 839 839 841 839 838 838 828 822 833 842 842 840 842 852 846 830 831 836 839 847 855 865 869 866 861 857 859 855 845 848 845 826 824 836 832 822 823 820 812 815 817 813 813 812 809 804 796 793 791 796 797 783 773 769 765 772 782 808 848 852 843 853 857 857 862 863 865 867 868 871 872 873
788 787 787 790 787 785 784 782 784 782 781 799 821 834 843 844 841 841 842 841 840 835 829 831 837 842 848 848 847 859 858 844 844 848 846 849 859 868 870 869 865 857 857 857 849 849 849 835 825 830 833 827 823 822 823 827 824 817 818 817 818 815 804 800 799 798 794 778 773 770 762 781 815 836 846 841 841 853 855 858 864 864 867 870 870 873 873 874
788 785 786 790 786 786 787 782 785 791 798 816 831 836 843 844 841 842 843 841 841 838 834 837 839 842 852 858 855 858 865 866 863 858 857 860 864 870 873 873 870 862 856 854 853 852 850 845 835 830 831 827 830 840 847 848 840 830 827 828 833 829 818 816 810 805 805 789 781 774 762 798 848 851 838 838 845 853 855 859 864 866 870 872 872 875 874 876
786 784 786 789 787 787 785 786 804 819 823 831 839 842 843 840 839 843 843 841 842 841 842 844 845 849 854 855 856 859 864 870 872 869 869 869 867 870 875 878 877 870 859 852 856 857 854 855 851 845 842 835 843 859 859 858 855 846 842 846 849 840 829 824 810 810 819 806 800 795 778 813 863 856 842 850 852 856 859 860 865 868 871 873 874 876 876 877
784 784 789 790 787 785 786 803 828 835 832 836 841 843 842 839 843 847 844 844 844 842 846 851 853 859 860 855 858 864 865 869 874 871 870 873 873 872 876 880 879 873 864 859 862 863 862 865 861 856 855 850 854 862 862 863 860 853 853 854 854 849 845 840 825 828 839 824 822 822 804 832 872 862 853 859 856 860 863 863 868 870 872 875 875 877 878 879
787 789 792 790 789 786 789 811 835 839 840 847 849 847 846 845 847 849 849 849 849 847 849 855 858 860 865 864 862 865 868 873 875 871 870 876 878 877 880 880 875 871 867 864 865 865 864 868 864 858 857 858 861 861 862 866 861 856 859 860 860 860 860 861 852 854 859 840 828 820 809 841 874 865 859 863 861 865 865 865 870 870 872 876 875 878 879 879
794 795 795 791 787 784 786 806 830 840 845 848 848 848 849 851 853 853 854 854 854 853 854 860 862 859 866 872 870 872 873 871 874 876 874 875 877 879 882 881 875 871 869 868 870 867 864 868 868 862 856 855 856 858 859 862 861 863 868 869 871 871 869 868 860 860 864 850 836 825 815 841 869 864 862 867 864 867 867 867 870 870 872 875 875 878 879 880
794 794 797 795 791 790 800 815 825 834 844 845 847 854 852 853 857 857 857 859 860 859 858 862 865 864 871 875 874 878 876 869 873 878 877 877 878 880 882 882 879 875 871 871 872 870 870 873 871 866 861 854 852 857 862 864 866 870 874 874 874 874 874 870 861 862 863 853 852 847 835 848 870 867 863 866 865 867 868 868 871 871 873 875 876 878 880 881
788 788 795 799 800 806 820 831 827 828 840 840 844 859 858 853 859 859 857 859 861 862 861 864 866 865 868 871 872 878 880 876 876 878 880 879 877 882 886 884 881 876 871 872 874 875 878 881 878 873 869 865 865 870 874 875 876 875 873 873 872 873 875 874 870 867 863 859 860 855 846 853 867 867 864 864 864 865 867 869 871 873 874 876 878 879 881 882
790 797 807 804 805 813 823 833 833 831 838 838 843 858 859 855 861 860 857 860 862 864 866 870 872 867 866 869 871 878 887 885 878 880 890 890 884 886 889 887 883 877 874 875 877 879 878 880 887 885 879 881 886 884 883 885 884 880 876 874 873 872 873 878 877 868 865 868 860 853 856 858 857 860 863 861 861 863 865 867 869 871 874 877 878 880 882 884
796 809 823 816 813 821 824 831 840 840 841 844 852 862 859 859 863 859 858 863 864 865 866 870 877 877 875 874 871 875 884 883 881 888 896 896 892 886 884 886 885 880 879 879 879 882 879 880 895 898 887 889 894 893 895 895 888 885 883 879 875 873 872 877 879 872 873 873 861 857 866 862 851 853 857 855 855 858 861 865 868 872 875 877 879 881 883 884
806 814 827 825 825 836 839 839 842 843 844 847 854 862 862 862 866 867 868 866 863 868 868 867 876 884 886 883 874 874 879 876 879 890 894 893 894 889 884 885 884 881 882 882 884 888 883 881 896 902 892 888 892 898 902 898 891 890 889 883 878 875 872 872 872 871 873 874 865 862 866 860 850 849 852 855 857 857 862 867 869 873 875 877 880 881 882 884
803 806 817 824 833 845 849 848 843 839 844 849 853 863 869 866 867 872 876 870 864 868 869 869 879 890 892 885 874 875 883 879 878 887 891 890 892 892 889 887 887 886 885 885 888 890 885 884 895 901 893 887 893 899 898 895 896 894 889 883 880 878 876 874 872 870 871 870 865 863 863 858 851 850 855 861 862 862 867 869 870 872 875 877 879 881 882 884
800 803 806 812 830 845 847 851 850 839 840 849 854 863 868 867 868 872 877 880 875 870 869 872 881 890 892 885 878 881 888 886 882 885 888 888 889 889 889 891 892 890 888 891 893 890 887 889 895 896 887 885 897 902 896 895 896 890 883 879 878 879 877 873 869 867 867 865 861 861 859 853 850 855 861 865 865 866 868 868 869 872 875 877 879 880 882 884
801 805 804 804 826 848 850 851 851 839 839 851 858 861 863 865 872 871 869 878 884 880 879 879 879 881 884 883 882 884 885 885 885 887 888 890 891 891 891 892 894 892 892 896 900 902 899 892 893 896 885 884 900 904 899 895 883 870 870 870 868 871 871 867 866 862 860 862 861 858 856 854 856 861 864 865 867 867 866 867 870 872 874 877 879 880 882 884
Wind_Speed
16 16 16 16 17 17 18 18 18 18 18 17 16 16 15 14 15 14 14 14 14 13 13 12 11 11 10 9 8 8 7 5 2 7 8 5 8 6 6 11 9 9 10 9 10 9 7 6 6 7 8 7 4 5 5 4 4 4 3 6 7 9 8 3 4 2 2 2 3 3 4 6 5 4 4 3 6 7 5 5 3 2 3 1 0 1 3 5
17 16 17 17 17 17 18 19 19 19 18 18 17 17 16 15 15 15 15 15 14 13 13 12 11 10 9 8 7 6 5 3 1 6 8 4 6 7 7 9 9 10 10 9 11 9 8 7 7 8 7 6 5 5 7 5 6 7 4 5 8 8 5 0 1 2 0 1 1 1 3 5 4 3 5 6 8 8 9 8 6 6 6 4 4 4 2 4
17 17 17 17 18 18 18 19 19 19 19 19 18 18 17 16 16 16 15 15 14 14 13 12 11 10 9 7 5 5 3 2 2 3 6 8 8 8 8 8 8 9 10 9 10 10 8 7 8 9 6 6 6 6 8 5 5 7 6 7 7 5 3 3 3 4 2 2 3 3 2 4 4 3 5 6 8 9 11 10 9 10 9 7 6 5 3 1
17 17 17 18 18 19 19 19 19 20 20 20 19 18 18 17 17 17 16 15 15 14 13 12 11 9 8 6 4 4 2 2 2 2 3 9 10 9 9 7 8 9 9 8 9 10 7 7 8 8 6 5 6 7 8 7 5 5 6 8 4 2 4 4 3 4 3 1 3 3 2 3 3 4 5 6 6 8 9 9 9 11 10 8 6 5 5 3
18 18 18 18 19 19 19 20 20 20 20 20 19 19 19 18 18 17 17 16 15 15 14 12 11 8 7 5 4 3 3 3 1 4 5 8 8 9 8 8 8 7 8 8 9 10 8 8 8 7 6 6 6 5 7 9 7 4 6 8 4 3 4 2 2 2 2 2 2 2 2 2 1 5 6 7 7 3 2 3 6 9 9 8 7 5 5 3
18 18 19 19 19 19 19 20 20 20 20 21 21 20 21 19 18 18 18 17 16 15 14 12 10 7 7 6 4 3 3 1 3 4 6 7 6 7 7 8 7 7 8 9 10 10 10 9 8 8 7 8 9 6 5 9 8 6 6 5 4 5 4 2 1 0 0 2 2 1 1 2 2 4 3 7 7 1 4 1 3 5 8 7 5 2 3 2
19 19 19 20 20 20 20 20 20 20 21 21 22 22 22 20 19 19 19 18 17 15 13 12 9 6 6 6 3 2 2 1 4 5 6 8 6 6 7 7 7 7 9 10 11 11 11 11 10 8 7 8 9 9 5 4 7 8 7 4 4 4 3 2 0 2 3 3 1 1 1 2 4 2 1 5 6 1 4 2 3 3 4 3 1 4 5 6
19 19 19 19 20 21 21 21 21 21 22 22 22 24 23 21 21 21 19 17 15 13 11 10 8 6 6 6 4 3 1 2 5 6 6 6 6 5 6 6 6 8 8 10 11 11 11 12 12 7 8 8 4 8 4 1 7 10 9 4 3 4 3 2 2 1 2 3 1 1 3 2 1 1 1 3 2 3 3 3 1 2 3 4 7 9 9 11
19 19 20 20 20 21 21 22 22 22 22 22 23 24 23 22 22 19 16 14 12 9 8 7 8 8 9 5 2 3 2 3 5 5 4 4 5 6 6 5 7 8 7 8 8 10 10 10 12 6 6 7 3 6 2 2 7 8 10 6 3 3 4 3 4 2 1 1 0 3 4 1 2 1 2 0 4 6 4 3 3 5 8 10 11 12 11 11
18 20 20 20 21 21 22 22 22 22 22 22 23 24 23 22 19 15 13 11 7 5 3 6 9 11 10 4 3 3 3 5 4 3 3 3 4 5 6 5 7 8 6 6 6 10 8 6 8 3 2 4 4 4 1 3 3 2 6 7 5 3 1 2 3 1 2 2 0 4 6 2 3 3 3 3 7 6 2 6 7 10 11 11 11 11 11 12
19 20 20 20 21 22 23 23 23 23 23 22 22 22 22 19 15 12 11 7 3 1 3 7 10 12 9 3 3 2 4 4 4 3 3 3 4 4 5 5 6 8 6 5 6 8 6 3 7 3 1 2 5 5 3 4 2 4 3 5 5 4 3 4 4 3 2 3 1 3 6 1 3 4 1 4 7 5 7 9 10 12 10 11 12 11 11 12
19 19 20 21 22 22 23 23 24 24 24 23 21 21 18 13 11 10 8 5 3 3 6 8 10 11 7 2 1 3 4 4 4 3 1 3 4 5 5 5 6 8 7 5 5 7 5 5 10 7 2 3 4 3 3 2 2 2 2 7 6 5 8 7 7 7 7 6 2 2 6 5 8 4 3 5 6 3 9 10 10 11 10 11 11 10 10 12
18 19 20 21 22 23 23 23 23 24 25 23 20 20 13 7 8 7 7 7 6 6 8 8 9 9 5 2 3 4 4 4 4 4 2 3 4 4 5 4 5 6 7 7 5 7 7 7 10 8 2 2 2 2 1 2 1 3 3 7 8 8 9 7 6 6 9 7 5 4 7 4 6 2 7 6 5 1 8 10 9 10 9 10 9 10 11 13
18 19 19 20 22 23 23 23 23 24 24 21 20 17 6 5 6 5 5 6 5 5 6 8 9 7 2 2 2 3 5 4 4 5 3 3 3 4 4 3 4 5 6 7 6 8 9 7 7 4 1 1 0 2 1 2 2 4 3 3 6 7 3 3 4 8 10 5 6 7 7 2 5 5 8 7 5 0 9 10 9 9 9 9 9 10 10 13
18 19 19 20 22 23 23 24 24 24 22 20 20 11 2 5 4 3 4 4 3 4 5 7 7 4 2 3 2 3 5 4 6 7 6 3 2 2 3 3 4 5 6 5 6 8 8 8 5 3 2 1 1 3 2 1 3 4 4 3 6 6 2 4 3 8 9 3 6 10 7 3 4 7 8 7 2 5 11 10 10 11 10 10 9 9 9 10
17 19 19 20 22 22 23 24 25 23 20 20 16 3 4 4 3 3 2 2 0 2 4 5 4 2 1 3 3 4 4 4 6 7 6 4 0 2 4 6 6 5 6 6 7 9 7 6 3 0 2 2 5 4 2 3 4 4 5 4 4 6 5 3 3 3 3 1 7 9 5 1 4 7 8 7 3 10 12 10 11 10 11 10 8 9 9 9
18 19 20 21 21 22 23 24 24 21 20 19 9 4 5 3 3 4 3 3 3 4 4 4 2 2 1 3 2 3 3 4 6 6 5 5 2 5 5 4 4 5 7 7 7 7 4 3 1 1 2 3 5 5 4 6 6 5 5 5 4 4 4 2 3 2 1 2 6 8 5 3 6 6 8 10 7 12 12 10 11 10 10 10 9 9 10 10
18 19 20 20 21 21 22 23 22 21 22 15 1 8 7 7 7 8 6 5 5 5 6 4 0 1 2 3 1 2 4 5 6 6 4 5 3 4 2 2 2 5 8 5 3 3 1 2 2 3 4 5 5 7 8 6 4 6 6 6 5 3 5 3 1 3 3 5 6 9 8 6 8 6 9 9 9 12 12 10 10 10 10 9 9 10 10 11
17 18 19 20 20 20 21 21 20 21 21 10 6 9 8 9 10 11 12 7 3 2 3 3 2 1 2 2 2 4 4 4 5 5 5 5 3 3 3 3 2 4 6 5 4 4 2 3 3 5 6 7 8 10 10 2 2 4 5 6 6 4 5 4 1 2 3 5 7 10 10 9 9 6 8 8 9 11 11 10 9 9 9 9 9 9 10 11
17 18 19 19 19 19 19 18 18 21 19 4 9 7 5 5 3 5 11 10 4 2 1 2 2 1 1 2 4 5 2 1 3 5 8 7 1 3 3 2 2 3 4 4 4 3 2 5 6 7 7 9 11 13 10 1 4 0 3 5 7 7 4 2 3 1 1 4 7 9 10 11 9 7 7 6 8 11 10 10 9 9 8 8 9 10 10 10
17 17 18 19 18 18 16 14 16 17 12 2 9 5 2 1 0 2 3 5 2 1 2 1 1 1 1 2 5 6 1 2 3 5 9 8 1 2 1 2 4 4 2 2 3 3 2 7 8 5 4 6 9 10 6 2 2 3 4 5 6 7 4 2 3 2 1 4 4 7 10 10 4 9 8 6 8 10 10 9 9 9 9 8 9 11 10 9
17 17 18 18 17 17 14 10 13 13 8 9 10 8 5 2 3 2 1 3 3 0 0 0 1 1 1 2 3 5 1 2 4 4 9 8 1 1 1 3 4 3 4 3 3 3 5 8 6 3 2 2 5 7 7 7 8 6 6 7 6 4 2 2 4 5 3 3 3 6 9 5 6 8 8 9 8 9 9 9 9 9 9 9 9 10 10 10
17 17 18 17 16 16 11 6 9 13 16 17 14 9 5 2 3 2 1 3 4 1 0 2 2 4 3 1 5 6 1 2 3 4 10 7 1 0 0 4 3 2 5 6 6 4 5 4 2 2 4 5 5 6 8 8 8 8 7 8 7 3 3 4 4 5 4 1 0 6 8 3 6 6 7 9 7 9 9 10 10 9 10 10 10 10 10 11
16 17 18 17 15 14 7 3 6 13 18 20 16 10 4 2 3 2 1 2 3 2 2 2 1 3 4 2 6 6 2 3 2 4 9 6 1 0 1 3 2 3 5 7 7 6 3 2 2 2 5 7 7 6 8 8 7 9 10 10 8 5 4 3 2 5 4 1 1 4 5 4 6 6 5 6 6 8 8 8 10 9 9 9 9 10 11 11
17 18 18 16 14 10 2 2 6 7 10 12 13 9 3 1 2 0 1 2 2 2 2 1 1 3 3 3 7 4 1 3 3 3 6 6 2 1 1 1 2 3 5 5 5 7 3 2 2 3 5 7 7 6 8 8 6 8 11 13 12 7 5 3 3 3 3 5 7 7 6 4 6 6 5 5 5 6 6 7 9 8 9 8 9 10 10 10
17 18 17 14 13 7 2 2 6 3 4 6 8 7 2 2 3 2 1 2 3 2 1 0 1 3 4 4 7 3 2 2 3 3 4 5 3 2 1 2 1 1 3 4 2 4 1 2 1 2 4 7 7 7 7 8 7 6 5 8 13 10 7 7 6 5 5 4 5 7 8 4 4 5 6 6 6 6 6 8 8 8 8 8 8 8 9 10
17 16 15 12 11 7 3 1 5 3 2 3 8 7 2 4 6 4 2 2 3 2 3 3 1 4 5 4 6 2 1 2 1 2 5 7 4 2 1 1 2 1 1 2 2 1 1 2 1 3 5 6 7 6 6 9 7 3 2 2 10 11 10 10 9 8 5 2 1 6 7 6 5 4 6 8 7 5 5 7 8 7 8 8 8 9 9 10
16 15 11 10 10 9 6 3 5 4 4 6 9 6 3 6 6 4 1 2 1 2 1 2 2 4 5 5 6 3 1 3 1 3 6 8 7 1 1 3 2 1 2 3 3 1 1 1 1 3 5 5 4 2 2 9 8 1 3 1 3 6 8 9 9 7 2 1 5 8 5 6 5 3 5 8 6 5 5 6 7 7 7 8 8 9 9 9
15 12 8 7 7 8 6 6 7 5 7 8 6 1 6 7 5 2 0 2 0 2 1 2 2 5 7 4 6 7 3 3 3 5 5 6 10 5 1 4 4 1 2 3 2 2 3 2 3 2 3 2 1 4 2 6 6 1 4 3 4 2 1 3 6 6 2 2 10 9 9 7 5 4 6 7 6 6 8 6 6 7 7 7 7 8 8 8
13 9 7 7 6 7 3 4 9 9 8 6 2 6 9 6 2 1 0 1 1 2 0 3 3 6 8 2 4 8 6 5 5 5 4 5 9 9 3 1 4 1 1 1 2 1 2 0 1 2 3 4 3 2 2 3 2 3 5 5 5 4 3 2 2 2 2 6 10 8 11 8 6 3 5 4 1 4 9 8 6 7 7 7 7 7 8 8
12 6 5 8 9 10 4 2 9 10 6 3 5 7 5 2 0 1 1 1 1 2 1 3 4 5 7 4 4 7 6 5 7 6 6 6 7 10 5 2 3 1 2 0 1 1 1 1 2 3 5 5 3 1 2 1 2 2 3 4 4 3 3 3 2 4 5 7 4 2 7 9 8 2 4 5 4 6 8 8 9 9 8 7 6 7 7 7
10 3 3 8 11 13 9 8 11 8 3 3 6 4 2 1 0 1 1 1 1 3 3 3 4 5 5 3 4 7 4 4 7 6 5 5 6 8 7 5 4 2 1 1 1 1 1 2 4 1 4 8 5 2 2 2 3 3 3 5 5 3 3 4 4 4 7 4 1 1 3 6 5 0 5 6 7 7 8 8 10 9 8 7 6 6 6 6
7 1 2 8 11 14 15 12 9 5 1 5 5 1 0 1 1 1 2 2 1 3 3 2 3 4 3 1 4 6 2 2 6 5 4 4 5 6 8 10 7 2 1 2 2 3 2 3 6 3 2 8 7 2 1 1 2 4 4 4 6 4 3 6 5 3 5 2 2 1 3 3 2 3 5 7 9 9 10 10 9 9 9 7 7 6 6 6
3 5 2 7 11 15 16 10 6 3 3 5 3 0 1 0 1 1 1 1 1 2 2 2 2 2 3 3 2 4 1 3 5 5 4 3 4 4 6 11 11 5 2 2 1 2 2 2 5 5 3 7 8 4 2 2 3 3 1 2 4 3 2 5 4 3 3 1 2 3 3 3 2 4 5 7 9 9 9 9 9 9 8 6 6 6 6 7
4 8 3 7 13 17 13 8 6 2 3 3 1 1 1 0 1 1 1 1 1 3 2 1 1 2 4 3 1 3 2 3 5 6 6 5 4 4 4 7 12 8 2 2 2 2 3 0 3 4 3 6 8 4 4 4 4 1 1 2 3 3 3 2 1 1 1 1 1 4 2 1 2 4 6 7 8 9 8 8 9 8 7 6 6 6 6 6
9 7 3 9 17 17 11 8 6 1 3 1 3 3 1 1 1 1 1 1 1 3 3 0 2 3 2 1 2 3 4 2 3 3 5 5 4 5 4 4 8 9 4 2 2 2 2 1 4 4 1 4 7 5 4 4 3 1 1 2 2 2 3 3 1 2 1 4 3 5 3 3 4 4 6 9 8 8 8 7 8 7 7 6 6 6 6 6
10 6 2 12 22 16 10 9 4 2 2 1 4 3 1 0 1 1 1 2 1 1 3 1 1 2 1 0 2 5 6 3 3 3 2 2 3 5 5 3 4 7 6 3 1 3 3 1 4 5 2 4 7 3 1 6 5 2 1 3 4 1 1 2 4 1 1 6 3 5 7 5 4 3 7 10 9 9 8 7 8 7 6 6 6 6 6 6
8 5 3 13 23 16 10 7 2 3 3 4 6 4 1 1 1 1 2 2 1 1 1 1 1 1 0 1 1 5 7 3 3 4 2 1 3 4 5 3 3 6 7 4 1 2 3 3 1 3 3 6 7 2 2 5 7 2 2 4 3 3 3 2 4 3 4 8 5 5 9 6 3 2 6 11 11 10 9 7 7 6 6 6 5 6 6 7
5 3 2 13 21 13 8 5 4 4 4 4 4 4 1 1 3 3 2 1 1 1 1 2 2 2 2 1 1 2 4 3 3 2 1 2 2 4 7 4 4 8 8 4 3 2 2 2 1 1 4 5 4 3 1 4 6 3 2 3 3 2 4 1 1 3 4 8 7 5 7 3 3 3 4 11 11 10 9 7 7 6 6 5 5 5 6 6
1 2 1 15 19 7 7 10 8 6 5 4 2 2 1 2 3 4 4 2 1 2 2 2 1 2 2 1 1 1 3 3 3 1 2 3 2 3 7 5 4 9 9 3 3 2 2 1 2 3 6 5 2 5 4 5 5 4 4 4 4 3 2 2 3 1 1 5 6 6 6 2 4 5 2 9 9 8 8 7 6 6 5 5 5 5 5 6
1 2 1 17 16 1 5 12 9 4 4 5 3 2 2 2 3 4 6 5 3 3 4 3 3 2 2 2 2 2 1 3 3 2 2 3 3 2 4 4 4 6 6 3 5 5 3 1 2 4 5 4 3 4 3 3 4 4 4 3 4 4 2 4 5 1 2 4 3 5 7 1 4 4 3 8 8 7 8 7 6 6 5 4 5 5 5 6
2 2 3 18 12 6 7 8 4 3 3 3 2 2 2 3 3 3 5 5 4 4 5 5 4 3 2 2 3 2 2 2 2 2 2 3 5 4 4 5 5 4 3 2 3 3 2 0 2 2 2 3 4 4 2 2 3 4 5 4 3 3 3 3 5 2 3 3 1 2 5 1 3 3 4 7 7 8 7 6 6 5 4 4 4 4 5 5
2 2 5 17 7 6 8 7 2 4 4 0 1 3 3 3 3 3 4 4 3 3 4 4 3 3 2 1 2 2 2 2 2 3 4 3 4 3 5 8 6 3 2 2 1 2 1 1 1 2 2 1 1 2 3 2 2 3 5 6 4 3 4 2 4 3 3 5 3 5 5 1 1 1 4 6 6 7 5 5 5 4 4 4 3 4 4 4
2 2 4 17 10 4 2 4 3 4 4 2 3 4 4 4 4 4 3 4 3 2 3 3 1 2 2 1 2 3 2 1 2 3 3 3 2 1 4 8 8 5 3 1 1 3 2 1 1 3 3 1 2 2 2 1 2 2 3 4 3 4 6 5 4 2 3 2 2 6 5 1 2 3 4 4 4 5 4 4 4 4 3 3 3 3 3 4
2 2 1 14 18 8 2 1 4 6 5 4 5 3 2 4 3 3 3 4 4 2 3 2 1 2 3 2 3 4 4 3 2 1 1 2 2 1 4 7 7 5 3 3 3 3 2 1 1 3 3 3 2 1 0 1 2 2 1 1 2 4 5 4 3 3 4 1 2 4 5 1 4 5 6 5 4 4 5 5 4 3 3 3 3 3 2 3
1 2 1 5 12 9 4 2 3 5 5 4 4 1 1 3 2 2 3 4 3 3 4 3 0 1 3 3 4 4 5 5 3 2 1 2 3 2 3 4 6 6 5 7 7 2 0 1 1 2 4 4 3 2 2 3 4 5 4 6 5 3 2 2 3 5 4 4 5 5 4 2 3 7 9 8 7 6 6 6 5 4 4 4 3 3 3 3
0 2 1 0 3 4 4 3 4 3 3 2 3 2 2 2 1 2 3 3 3 3 4 4 3 2 2 2 3 3 3 4 3 3 1 1 1 2 3 2 4 8 8 7 5 2 2 0 1 1 3 3 1 2 3 3 4 7 8 9 7 5 4 3 7 7 4 5 8 2 1 4 4 8 10 10 8 8 7 7 6 5 5 4 3 3 2 2
1 2 0 1 1 1 2 2 3 4 4 3 3 2 3 3 2 2 2 2 3 3 2 3 4 4 2 1 3 2 1 2 3 1 1 1 2 3 3 1 3 8 8 4 4 3 1 1 1 1 2 3 2 2 3 2 4 5 6 9 9 9 8 7 9 9 5 7 9 2 1 5 5 6 10 10 9 9 8 6 5 5 5 4 3 2 1 1
2 3 1 3 2 2 3 3 4 5 5 4 3 3 2 4 4 2 1 2 2 3 2 2 1 3 3 1 3 3 1 2 2 1 2 1 1 1 2 1 1 6 7 4 3 2 1 0 2 1 3 4 3 1 1 1 4 4 6 9 10 11 12 11 10 10 8 11 12 9 9 12 11 7 5 3 2 4 5 5 5 5 5 5 3 2 1 0
1 3 2 2 4 4 3 3 2 4 4 3 2 2 2 3 5 2 2 3 2 1 2 5 4 1 2 2 3 3 2 2 3 2 3 2 1 1 0 0 1 5 6 3 3 2 2 2 3 1 2 4 3 2 1 2 3 5 8 11 11 11 12 12 12 10 10 12 14 14 14 13 9 3 3 4 3 4 5 5 5 5 4 4 3 2 2 0
4 4 4 5 5 2 2 2 1 1 2 2 2 4 3 3 5 5 3 4 2 0 1 6 9 3 3 3 4 3 4 3 5 4 4 3 1 1 0 0 0 3 4 2 2 3 2 1 1 1 3 4 2 4 4 4 4 8 11 12 12 11 10 11 10 9 10 12 13 13 13 9 3 3 4 3 4 4 5 6 5 4 3 3 2 2 2 1
6 5 2 4 4 3 1 1 1 1 2 2 2 3 2 4 5 4 4 3 3 3 2 5 8 4 3 3 3 3 3 1 4 4 3 2 3 2 1 1 1 1 1 1 1 2 1 1 0 1 3 2 1 3 4 5 7 7 5 4 6 7 9 10 10 11 12 11 11 11 8 3 2 4 3 3 5 6 5 4 3 3 3 2 2 2 2 1
Wind_Direction
348 347 346 345 343 341 339 338 335 334 334 332 331 330 329 328 325 322 320 316 316 315 314 316 314 318 316 319 320 302 303 310 280 185 193 211 205 199 187 189 176 175 177 159 161 156 149 162 169 179 180 174 185 171 179 200 180 184 209 211 219 226 227 226 213 209 33 88 96 118 177 219 221 192 193 190 216 224 216 202 209 230 230 258 191 122 81 51
347 346 345 345 344 342 340 338 334 333 333 331 329 328 329 327 323 321 318 315 313 312 311 311 311 314 313 317 312 283 307 335 224 200 206 178 169 183 170 171 177 184 180 169 176 176 175 175 170 183 192 186 186 168 174 184 186 196 210 221 225 229 226 242 180 183 189 171 222 278 199 228 241 211 188 209 219 211 222 217 214 229 217 213 205 186 132 57
346 345 345 345 342 340 339 338 335 334 332 330 329 326 327 324 322 320 316 314 311 309 306 306 306 309 310 310 294 262 308 332 219 216 210 173 152 170 165 160 183 192 184 183 190 192 194 183 177 187 197 204 197 177 183 179 185 204 214 224 223 229 209 136 138 173 185 199 237 279 236 229 238 207 185 216 229 215 225 225 215 222 216 210 209 200 180 147
346 345 344 345 342 339 338 338 335 334 331 329 329 328 327 324 322 319 315 313 308 306 301 302 301 300 307 296 267 247 271 256 217 43 164 166 156 174 179 175 196 204 195 196 196 196 196 179 182 195 199 216 209 190 196 186 183 198 214 228 215 200 211 168 149 154 136 180 249 288 261 248 231 202 204 212 228 225 228 233 228 227 221 210 207 206 189 196
345 344 343 343 342 339 337 336 335 334 331 329 330 328 327 324 322 318 314 310 305 303 298 296 294 292 294 270 247 233 229 229 112 73 126 148 161 179 183 195 211 218 209 202 189 184 187 180 182 195 200 212 208 201 207 196 197 203 212 236 227 209 222 155 131 149 118 147 215 273 267 301 239 207 221 222 233 241 208 247 254 246 238 220 213 202 179 186
344 344 343 342 340 338 338 336 334 333 330 328 327 327 326 324 322 318 313 308 303 298 292 287 283 280 271 252 236 207 219 231 99 123 123 121 162 178 183 209 226 219 199 188 174 173 181 180 185 191 199 211 210 212 210 197 205 222 214 217 214 220 222 141 102 300 125 174 197 281 303 325 257 228 230 237 250 30 90 53 333 287 266 237 225 180 148 158
344 343 342 341 339 337 337 336 334 332 329 328 326 326 326 324 322 318 313 307 303 296 286 276 266 261 246 225 188 175 220 93 121 148 132 123 151 172 189 210 219 195 177 174 172 177 181 181 191 192 196 205 214 216 207 195 208 227 226 197 186 202 193 154 171 267 262 258 301 49 250 259 250 259 326 246 254 95 102 57 22 342 301 237 146 65 64 56
341 342 341 340 339 336 335 335 333 331 329 328 326 325 325 325 323 319 315 310 306 299 284 262 243 228 210 194 174 176 180 122 143 154 140 139 158 175 195 203 198 177 173 181 177 181 180 183 191 187 201 200 214 218 193 207 219 229 234 198 157 171 140 152 170 188 259 284 333 201 232 253 233 281 305 251 284 357 341 346 10 33 34 61 65 60 57 51
341 342 340 339 339 336 334 334 333 331 330 328 325 325 325 326 325 322 321 317 308 300 280 238 210 202 197 193 207 197 118 113 147 159 152 159 176 187 200 202 191 175 173 181 175 181 181 190 191 181 218 201 196 218 182 240 222 232 237 217 180 171 132 177 191 128 73 311 306 248 245 175 124 226 257 215 16 343 325 17 52 60 56 61 63 57 56 50
342 341 339 338 337 335 334 334 333 331 330 328 325 325 326 329 329 328 329 323 308 294 254 191 181 185 191 201 228 201 97 106 133 153 171 169 169 185 202 201 193 186 174 169 178 185 182 196 186 158 280 200 189 211 200 238 227 306 258 241 236 235 146 227 244 111 32 325 106 273 265 156 125 241 219 87 10 336 60 75 71 76 70 67 67 59 53 51
341 340 339 339 337 336 335 333 333 331 330 328 325 326 330 332 334 337 337 334 334 354 141 158 176 178 180 210 233 169 87 100 112 122 165 168 162 172 188 192 191 195 185 171 187 188 187 179 153 141 299 171 184 203 227 244 296 356 310 265 248 267 273 249 255 220 254 281 156 269 267 146 149 227 233 46 351 337 88 81 79 87 85 72 65 60 53 51
341 339 339 339 337 337 335 334 333 331 330 327 328 332 334 338 347 354 358 26 66 100 138 162 178 170 166 184 23 69 86 99 85 72 107 154 169 166 166 175 185 199 198 192 196 188 189 162 162 181 192 147 170 188 227 234 309 313 271 262 242 263 262 232 231 230 229 226 153 259 257 227 200 185 32 9 336 10 92 84 87 90 88 78 65 61 53 45
340 338 339 338 337 338 336 335 333 331 328 327 333 336 338 0 4 4 30 61 85 114 148 171 169 162 170 136 65 55 84 100 79 50 65 132 151 157 160 167 175 194 203 208 209 192 191 178 182 194 172 189 183 125 161 143 222 236 225 252 243 256 257 219 205 206 216 213 151 209 252 228 181 120 21 1 323 17 96 83 89 93 86 80 68 66 57 43
339 338 339 337 338 338 336 335 332 330 328 330 338 337 349 52 32 24 52 80 92 111 155 173 163 163 166 83 64 64 87 96 76 50 61 114 127 137 145 159 173 187 196 206 205 195 196 180 175 173 124 293 131 134 171 128 178 213 204 235 236 245 232 149 173 184 196 200 150 196 246 225 105 37 1 354 317 169 99 84 82 85 80 77 68 64 59 49
338 337 338 337 338 337 336 335 332 329 329 336 339 337 57 70 53 53 77 106 84 86 136 159 163 172 123 92 80 93 95 80 52 35 39 72 137 145 125 130 143 160 172 184 183 180 180 168 159 157 145 104 158 193 214 167 177 196 211 216 210 228 211 122 154 193 197 171 165 196 232 230 68 27 360 351 314 116 93 82 74 74 73 68 62 57 55 52
338 338 338 338 338 338 336 334 331 330 335 341 339 335 115 77 77 86 110 159 42 104 127 145 166 226 109 102 104 95 74 39 28 21 30 38 294 152 120 122 110 121 131 125 136 139 146 158 158 200 144 167 201 212 223 218 203 190 221 234 192 210 231 177 136 208 233 132 180 209 243 159 64 26 15 14 74 106 88 78 70 67 66 59 55 49 44 41
339 339 339 338 339 338 336 334 331 333 342 345 341 146 118 93 106 78 81 95 85 111 128 129 174 262 59 85 106 72 23 352 7 18 33 32 89 136 120 114 91 106 118 112 124 122 128 152 130 238 197 197 198 198 220 229 216 189 208 237 220 204 230 208 125 117 240 210 193 213 239 118 89 44 36 28 54 91 84 76 68 60 59 56 53 48 41 37
339 339 338 340 340 338 338 334 332 340 348 349 58 142 106 92 94 73 71 98 100 110 118 93 353 226 86 63 36 0 328 319 356 17 26 35 94 132 104 108 117 135 131 125 147 146 159 156 173 211 195 198 193 192 214 227 216 206 204 223 228 209 226 233 108 105 178 206 192 193 200 148 114 73 55 38 47 78 78 70 66 57 53 51 49 47 42 38
340 340 339 340 339 340 340 335 338 345 348 353 142 139 111 101 94 72 56 60 85 106 114 57 344 238 84 38 338 328 313 314 353 21 23 26 79 104 77 92 110 146 154 159 169 167 173 157 190 218 205 201 199 205 218 200 89 221 225 235 241 232 228 217 86 60 186 195 190 193 197 175 152 103 67 50 52 70 72 67 60 53 48 46 47 46 42 40
341 340 339 340 339 341 341 337 343 347 346 4 152 148 127 126 125 75 44 39 54 24 11 38 16 14 51 24 337 333 345 15 22 34 21 6 25 110 79 80 117 153 181 173 154 157 198 198 206 216 210 205 204 213 223 145 70 219 236 238 245 245 236 160 114 71 217 215 200 197 207 198 166 92 58 46 54 57 56 60 56 53 49 42 42 41 39 40
341 339 339 339 338 342 343 338 347 353 353 99 151 137 101 124 122 129 57 50 75 357 21 46 314 348 8 326 339 344 13 86 53 34 15 6 341 178 101 130 166 175 172 116 117 119 203 223 222 213 204 209 213 218 223 214 213 243 246 242 245 242 231 125 121 129 185 236 205 191 212 208 138 64 47 40 53 49 42 54 57 56 56 43 37 36 35 35
340 340 339 339 341 344 344 338 352 11 46 91 101 88 84 52 25 82 146 98 89 14 179 294 276 57 0 273 354 349 278 97 59 32 6 4 354 216 88 165 200 179 136 135 142 160 207 229 226 181 151 203 217 218 218 226 233 237 242 248 250 235 221 174 141 134 167 225 191 178 207 198 82 60 54 52 61 62 53 60 61 58 57 44 34 30 28 28
341 340 339 342 344 345 345 338 360 33 62 73 75 77 81 30 21 67 162 105 90 85 30 35 53 44 27 62 11 350 26 72 47 37 3 350 168 8 37 182 202 142 153 189 198 200 212 234 250 140 154 193 203 202 210 223 234 234 232 244 245 196 200 231 163 132 145 258 248 179 203 178 98 85 69 65 76 81 72 68 64 58 58 49 42 36 28 27
343 341 342 345 345 344 343 340 11 44 60 65 64 57 56 42 58 68 0 110 97 84 56 43 73 32 21 27 354 344 78 57 15 24 357 345 115 157 221 177 186 172 186 206 215 238 232 89 43 143 175 207 212 194 204 220 230 231 226 235 245 199 188 250 106 127 144 205 192 177 221 214 154 142 105 93 94 89 81 76 68 58 58 55 49 42 34 32
344 344 347 346 347 348 335 11 17 41 56 61 53 38 37 89 91 11 285 133 92 89 116 167 146 43 1 344 358 349 143 68 21 348 345 354 6 258 159 132 238 213 194 187 212 253 253 109 102 157 176 206 216 208 207 218 235 238 227 227 240 230 187 177 139 160 221 230 193 188 241 235 148 146 138 127 124 108 85 72 68 58 53 49 43 38 34 33
345 348 350 349 357 6 163 65 18 27 62 54 23 8 358 191 185 215 271 133 81 55 54 35 130 22 358 351 358 329 194 82 26 338 350 358 338 265 165 148 219 262 177 170 210 255 241 94 143 199 197 201 216 229 205 204 238 251 231 217 227 229 203 190 187 202 247 257 175 193 237 241 157 159 152 137 133 124 96 71 67 58 49 44 40 36 31 28
348 351 353 355 9 31 132 86 17 37 67 3 344 343 273 204 189 205 273 132 85 4 357 19 0 2 6 348 338 304 180 7 347 51 22 3 352 243 257 115 173 62 113 190 226 232 120 120 185 210 214 214 222 234 191 189 226 257 36 214 216 214 209 202 198 213 237 349 119 206 238 260 235 171 150 148 135 122 107 80 70 62 53 50 44 38 35 31
350 353 357 359 13 40 82 73 42 48 4 328 329 325 211 179 178 207 264 134 74 349 13 10 341 9 0 330 350 35 50 328 342 45 17 15 23 243 222 34 7 46 44 247 224 64 62 130 200 212 216 228 231 296 170 196 220 268 56 15 211 205 211 203 205 223 236 357 242 210 198 251 245 131 141 169 163 164 153 108 83 72 59 55 48 41 40 37
350 353 4 8 19 38 61 63 43 18 350 341 342 20 155 159 181 217 50 168 353 50 95 331 336 356 338 320 21 33 18 8 21 355 347 19 22 12 97 30 346 10 56 278 263 38 42 33 351 296 246 285 358 18 349 226 230 113 103 98 79 86 138 176 211 220 141 234 246 206 175 228 247 150 160 184 201 196 164 125 97 89 74 63 53 43 40 38
349 355 11 26 39 24 37 57 19 0 353 357 51 123 142 156 202 211 125 207 31 47 326 355 359 328 329 337 51 20 16 25 0 342 8 24 17 22 41 0 343 342 153 296 290 71 60 348 357 12 344 333 351 13 332 260 221 131 138 123 96 92 97 103 198 178 149 236 244 194 174 213 249 182 153 163 216 160 147 135 118 102 85 73 58 47 42 38
348 354 15 34 38 24 31 356 348 352 357 32 121 136 154 187 227 147 137 202 33 15 350 14 8 342 1 52 48 4 7 16 357 359 27 17 13 23 15 335 0 0 180 249 253 129 72 141 103 47 19 3 321 318 50 61 166 156 174 152 135 131 132 135 144 158 208 236 254 175 170 200 232 225 107 84 64 109 136 136 127 111 91 81 67 55 47 38
344 342 29 30 27 20 14 337 336 349 3 121 141 160 207 215 95 140 347 328 333 12 31 10 354 1 9 49 34 356 339 9 15 28 39 30 39 39 34 23 347 261 136 50 309 0 97 84 36 15 53 28 337 275 96 125 193 212 205 184 192 177 154 192 179 183 226 226 54 339 193 196 224 131 93 89 78 90 103 107 114 111 99 89 73 61 52 42
335 182 81 25 18 7 356 341 338 349 82 145 163 217 141 136 96 104 331 349 14 4 9 339 342 349 326 12 23 352 327 10 4 23 46 53 68 65 56 39 7 292 22 7 325 348 141 110 19 348 59 21 352 312 106 139 203 217 203 199 213 197 186 214 194 194 244 224 101 193 193 212 221 101 105 103 91 90 91 94 101 100 98 90 76 67 55 47
312 159 103 18 8 356 351 348 350 4 139 159 191 296 74 110 108 103 329 350 9 326 330 327 321 354 25 50 5 324 25 62 11 18 35 37 60 50 33 28 16 358 322 324 0 351 257 155 29 5 348 1 10 17 334 311 272 249 258 292 250 235 253 234 210 224 234 129 102 171 174 231 230 105 104 108 101 99 96 99 101 95 95 90 80 70 54 49
165 148 97 10 359 354 352 352 352 14 161 169 43 67 83 65 166 132 0 281 283 312 335 13 351 33 43 50 34 337 358 55 33 35 41 40 55 35 3 8 9 5 318 303 44 346 284 157 15 332 301 349 5 358 323 298 265 274 40 293 285 305 315 298 234 286 324 62 156 184 182 34 96 108 117 119 109 108 105 104 106 99 96 92 81 68 52 44
154 148 84 8 359 357 357 352 353 58 175 185 60 71 70 53 162 138 62 285 288 330 315 300 59 57 63 25 33 7 338 7 22 34 60 65 70 41 8 356 5 10 6 346 29 10 288 101 4 339 141 44 2 337 357 351 280 312 113 239 311 336 320 309 257 79 23 269 218 174 182 105 120 149 143 136 122 117 118 112 110 103 97 91 75 61 50 39
152 161 103 10 0 356 355 353 1 107 130 83 76 83 84 71 207 155 18 316 284 340 300 216 52 24 73 24 8 349 334 349 358 0 81 100 69 29 353 342 8 13 6 336 55 42 318 281 22 16 63 26 352 304 62 39 6 330 291 323 341 274 244 280 254 226 228 250 230 178 204 190 176 182 146 152 151 137 133 121 114 109 99 90 72 61 49 38
159 169 131 9 359 355 356 5 56 107 82 70 79 102 130 73 55 0 358 335 247 278 312 95 44 353 127 123 41 342 328 335 359 13 74 89 45 28 355 338 336 357 355 320 326 43 321 286 80 45 338 337 350 290 191 40 22 6 295 333 346 249 245 207 225 255 244 245 248 204 208 206 189 136 152 171 165 146 140 128 119 113 97 86 71 62 48 38
166 171 134 0 357 358 5 31 89 69 69 85 90 114 150 108 76 34 357 331 308 302 30 77 42 44 71 49 88 343 341 9 9 5 56 24 44 42 15 353 308 341 350 335 340 353 326 311 211 75 351 314 341 14 336 1 5 10 350 351 24 319 296 275 247 293 263 253 257 226 202 179 42 24 174 179 161 142 142 129 117 105 87 77 64 54 45 38
164 168 129 355 355 8 38 57 71 43 59 90 94 103 114 150 102 45 18 8 5 356 33 84 60 66 89 68 62 42 22 38 25 7 31 22 67 77 27 5 320 336 337 345 29 359 341 341 248 347 354 314 358 45 19 355 348 346 357 8 13 341 310 302 286 305 304 267 261 255 237 158 33 353 181 164 148 133 130 121 112 101 85 74 62 50 43 40
357 142 35 349 352 28 61 53 55 30 73 88 83 107 100 123 107 40 19 22 41 48 48 70 71 74 122 114 70 62 43 51 40 39 62 30 34 68 40 11 318 319 322 0 38 13 8 15 283 329 348 339 25 34 4 348 355 4 9 8 359 342 325 271 255 164 11 283 257 267 262 134 43 354 88 122 124 113 109 110 110 103 93 81 68 56 49 43
26 132 346 348 4 101 77 56 45 22 91 86 54 75 62 81 81 16 12 23 39 63 61 64 58 55 87 79 67 75 59 58 34 35 82 62 40 36 10 342 297 282 318 20 34 20 46 71 296 314 320 325 348 2 13 348 359 61 57 28 1 355 5 278 267 9 355 301 26 280 256 92 33 341 82 103 108 103 102 109 113 110 103 93 82 72 62 50
36 133 356 354 8 125 75 64 62 36 67 77 3 39 30 53 60 20 21 23 23 52 59 56 49 49 55 50 75 75 48 45 29 56 105 104 66 44 346 335 320 311 359 20 21 17 58 108 305 294 278 295 4 53 72 15 346 78 54 23 25 34 31 337 289 329 311 289 299 261 244 104 19 284 100 100 100 103 110 115 121 130 123 113 102 88 72 56
46 155 358 5 17 168 112 79 132 96 89 109 78 59 40 54 52 32 36 26 20 64 77 61 34 53 58 49 74 62 26 44 36 44 99 118 82 38 349 347 353 12 17 11 11 340 341 64 356 309 308 205 149 128 125 112 23 41 22 18 43 29 5 328 289 287 254 271 297 261 260 92 127 158 129 124 117 120 129 124 132 145 135 132 121 102 84 60
66 145 292 14 32 65 100 80 132 124 123 112 86 50 27 73 55 15 46 52 37 49 86 80 0 69 82 81 77 51 13 35 71 29 64 91 93 31 357 349 349 359 8 25 25 331 316 38 317 299 291 268 272 321 96 34 350 354 353 344 15 15 350 320 309 281 251 296 34 270 266 89 126 172 180 180 178 170 157 144 147 149 138 137 125 109 89 61
100 66 241 6 29 50 68 18 62 110 133 127 100 43 18 88 80 355 36 58 46 41 61 66 1 75 77 67 72 51 11 18 60 105 71 67 92 40 343 335 336 349 26 40 36 28 156 58 329 261 254 276 316 341 9 3 311 287 291 305 322 344 335 310 279 266 272 309 302 264 248 255 202 197 201 201 198 198 186 172 169 161 153 146 129 117 96 68
132 71 37 353 37 53 67 39 27 75 117 124 115 122 80 83 64 15 28 36 51 56 53 42 23 46 75 103 108 77 10 4 32 72 67 346 11 333 312 308 341 358 26 37 19 38 139 210 33 123 258 285 328 297 324 340 280 276 290 295 300 297 283 258 247 260 316 313 281 259 148 259 232 187 200 211 209 209 203 190 182 169 162 154 134 123 104 75
44 124 307 324 47 70 65 64 68 75 71 67 92 110 98 89 73 52 55 52 36 37 52 34 20 30 47 134 129 107 21 33 42 51 169 289 326 331 343 16 7 14 29 26 4 42 128 271 36 75 286 283 252 273 333 332 262 274 284 279 285 284 270 252 244 251 263 261 264 281 159 263 264 198 201 209 210 209 197 180 167 153 153 153 144 146 132 72
64 110 51 349 52 100 56 63 99 95 77 70 82 82 95 116 111 76 38 61 27 359 42 98 22 8 21 68 114 124 195 148 96 246 182 120 332 326 9 21 39 29 28 27 31 46 199 130 103 137 300 303 294 277 58 306 274 274 264 259 266 269 265 264 260 251 242 248 261 275 266 264 271 253 208 168 169 183 161 146 150 154 160 160 156 175 177 71
148 141 136 65 83 87 46 36 74 92 75 50 65 93 108 125 133 131 33 51 94 314 45 121 146 75 30 71 99 114 186 162 118 165 172 141 169 220 1 290 52 23 15 31 40 349 330 59 108 125 294 298 332 33 17 320 290 270 265 257 253 257 260 262 260 249 243 248 255 262 263 262 262 240 130 110 119 137 143 161 175 171 169 168 169 183 184 219
83 108 138 116 89 40 28 49 37 94 87 41 99 149 154 154 156 144 82 36 69 82 59 134 145 125 38 61 79 114 166 127 89 121 165 161 108 81 16 130 107 359 7 39 7 339 355 41 94 54 297 279 11 19 340 327 295 270 268 261 248 241 245 252 254 248 246 252 257 256 257 262 253 112 108 136 165 173 185 193 193 181 169 176 195 197 186 233
96 87 108 107 80 3 358 77 14 104 100 54 99 136 137 154 165 140 98 55 30 26 26 146 146 124 63 87 103 136 165 84 62 97 142 113 70 59 50 86 97 337 20 95 4 358 13 285 25 16 286 274 23 358 330 325 301 277 260 257 247 238 244 252 255 255 251 252 261 262 264 293 61 115 152 193 191 204 212 199 194 187 173 186 207 193 189 253